一网星座-0556星 (ONEWEB-0556)

导读 | 星芒AI

ONEWEB-0556 是 OneWeb 卫星通信星座中的一颗低轨通信卫星,旨在为全球提供高速互联网服务。该卫星由 OneWeb 公司部署,采用先进通信技术,支持偏远地区和航空、航海等移动场景的网络连接。作为 OneWeb 计划中的重要组成部分,它有助于扩大全球数字接入,提升通信覆盖率和网络稳定性。

基本信息
目录编号:
55798
目录名称:
ONEWEB-0556
国际标识:
2023-029C
轨道中心:
EARTH
卫星名称:
一网星座-0556星
卫星全名:
一网星座-0556星 (ONEWEB-0556)
卫星状态:
在轨 (已飞行1013 天)
发射日期:
2023-03-09 UTC
国别 :
英国 (GB)
星等 :
--
轨道信息
数据来源 国际轨道数据
星历时间: 2025-12-15T15:09:22+0800
19小时前
查看轨道信息
半长轴: 7559.908km
偏心率: 0.0002756
轨道倾角: 87.920°
近地点辐角 91.227°
升交点赤经 311.158°
平近点角 268.918°
近地点: 1179.689km
远地点: 1183.857km
周期: 109.027分钟
每日圈数: 13.207725
详细信息
平衡模式:
三轴稳定
覆盖范围:
全球
运营商:
一网卫星公司
运营商所在国:
英国
制造商(研发单位):
一网卫星公司
制造商所在国:
英国
使用方式:
暂无
卫星简介
OneWeb卫星网络由648颗重约125公斤的微型卫星组成,运行在1200公里的轨道上。 每颗卫星都能够提供至少每秒8千兆位的吞吐量,以使用其高吞吐量的Ku频段有效载荷为家庭和移动平台提供互联网接入。该卫星仍在工作。
2D轨道图
3D轨道图
轨道高度分析图
轨道倾角分析图
轨道综合分析图
查看轨道综合分析图